When you browse on this site, cookies collect data to enhance your experience and personalize the content and advertising you see.
Visit our Privacy Policy to learn more. By continuing to use the site, you agree to this use of cookies and data.
  • In Austria
  • List of Countries
  • For 7 days
  • Water Temperature
  • Weather Map
  • News
  • Weather Widgets
  • user-avatar
    Login

    Hourly Weather Rosas

    Today, 17 September, Tuesday

    Time Temperature Precipitation Wind Pressure Humidity
    00:00 +16°C° 0 mm 1 mps 617 mmHg 87%
    01:00 +15°C° 0 mm 1 mps 617 mmHg 87%
    02:00 +15°C° 0 mm 1 mps 617 mmHg 86%
    03:00 +15°C° 0 mm 1 mps 616 mmHg 86%
    04:00 +15°C° 0 mm 1 mps 616 mmHg 86%
    05:00 +16°C° 0 mm 1 mps 617 mmHg 84%
    06:00 +16°C° 0 mm 1 mps 617 mmHg 82%
    07:00 +18°C° 0 mm 1 mps 618 mmHg 80%
    08:00 +20°C° 0 mm 1 mps 619 mmHg 72%
    09:00 +23°C° 0 mm 1 mps 620 mmHg 65%
    10:00 +25°C° 0 mm 1 mps 621 mmHg 58%
    11:00 +25°C° 0.4 mm 1 mps 620 mmHg 59%
    12:00 +25°C° 0.4 mm 1 mps 620 mmHg 61%
    13:00 +25°C° 0.4 mm 1 mps 619 mmHg 62%
    14:00 +24°C° 0.7 mm 1 mps 619 mmHg 66%
    15:00 +24°C° 0.7 mm 1 mps 618 mmHg 70%
    16:00 +23°C° 0.7 mm 1 mps 617 mmHg 73%
    17:00 +21°C° 1.1 mm 1 mps 617 mmHg 80%
    18:00 +20°C° 1.1 mm 1 mps 617 mmHg 86%
    19:00 +18°C° 1.1 mm 1 mps 617 mmHg 93%
    20:00 +18°C° 0.6 mm 1 mps 617 mmHg 92%
    21:00 +16°C° 0.6 mm 1 mps 617 mmHg 91%
    22:00 +16°C° 0.6 mm 1 mps 617 mmHg 90%
    23:00 +16°C° 0.3 mm 1 mps 617 mmHg 89%

    Tomorrow, 18 September, Wednesday

    Time Temperature Precipitation Wind Pressure Humidity
    00:00 +15°C° 0.3 mm 1 mps 617 mmHg 88%
    01:00 +15°C° 0.3 mm 1 mps 616 mmHg 88%
    02:00 +15°C° 0.1 mm 1 mps 616 mmHg 87%
    03:00 +15°C° 0.1 mm 1 mps 616 mmHg 87%
    04:00 +15°C° 0.1 mm 1 mps 616 mmHg 86%
    05:00 +15°C° 0 mm 1 mps 616 mmHg 85%
    06:00 +16°C° 0 mm 1 mps 617 mmHg 83%
    07:00 +16°C° 0 mm 1 mps 618 mmHg 81%
    08:00 +20°C° 0 mm 1 mps 618 mmHg 75%
    09:00 +22°C° 0 mm 1 mps 619 mmHg 69%
    10:00 +24°C° 0 mm 1 mps 620 mmHg 62%
    11:00 +24°C° 0.4 mm 1 mps 620 mmHg 63%
    12:00 +25°C° 0.4 mm 1 mps 619 mmHg 63%
    13:00 +25°C° 0.4 mm 1 mps 619 mmHg 64%
    14:00 +24°C° 1.4 mm 1 mps 618 mmHg 71%
    15:00 +22°C° 1.4 mm 1 mps 617 mmHg 78%
    16:00 +21°C° 1.4 mm 1 mps 616 mmHg 86%
    17:00 +20°C° 1.2 mm 1 mps 616 mmHg 89%
    18:00 +17°C° 1.2 mm 0 mps 616 mmHg 92%
    19:00 +17°C° 1.2 mm 0 mps 616 mmHg 95%
    20:00 +16°C° 0.8 mm 0 mps 616 mmHg 96%
    21:00 +16°C° 0.8 mm 0 mps 617 mmHg 96%
    22:00 +16°C° 0.8 mm 0 mps 617 mmHg 97%
    23:00 +16°C° 0.3 mm 0 mps 617 mmHg 96%

    Day after tomorrow, 19 September, Thursday

    Time Temperature Precipitation Wind Pressure Humidity
    00:00 +16°C° 0.3 mm 0 mps 617 mmHg 96%
    01:00 +16°C° 0.3 mm 0 mps 616 mmHg 95%
    02:00 +16°C° 0.3 mm 0 mps 616 mmHg 95%
    03:00 +15°C° 0.3 mm 0 mps 616 mmHg 95%
    04:00 +15°C° 0.3 mm 0 mps 616 mmHg 95%
    05:00 +16°C° 0.2 mm 0 mps 616 mmHg 93%
    06:00 +16°C° 0.2 mm 0 mps 617 mmHg 92%
    07:00 +16°C° 0.2 mm 0 mps 617 mmHg 91%
    08:00 +18°C° 0.3 mm 0 mps 618 mmHg 85%
    09:00 +22°C° 0.3 mm 1 mps 619 mmHg 79%
    10:00 +23°C° 0.3 mm 1 mps 619 mmHg 74%
    11:00 +23°C° 1.2 mm 1 mps 619 mmHg 75%
    12:00 +23°C° 1.2 mm 1 mps 618 mmHg 77%
    13:00 +23°C° 1.2 mm 1 mps 618 mmHg 79%
    14:00 +22°C° 2 mm 1 mps 617 mmHg 83%
    15:00 +19°C° 2 mm 0 mps 616 mmHg 87%
    16:00 +18°C° 2 mm 0 mps 616 mmHg 91%
    17:00 +17°C° 2.5 mm 0 mps 616 mmHg 93%
    18:00 +17°C° 2.5 mm 0 mps 616 mmHg 96%
    19:00 +16°C° 2.5 mm 0 mps 616 mmHg 98%
    20:00 +16°C° 1.2 mm 0 mps 616 mmHg 97%
    21:00 +16°C° 1.2 mm 0 mps 617 mmHg 97%
    22:00 +16°C° 1.2 mm 0 mps 617 mmHg 97%
    23:00 +16°C° 0.3 mm 0 mps 617 mmHg 96%

    20 September, Friday

    Time Temperature Precipitation Wind Pressure Humidity
    00:00 +16°C° 0.3 mm 0 mps 617 mmHg 96%
    01:00 +15°C° 0.3 mm 0 mps 616 mmHg 96%
    02:00 +15°C° 0.2 mm 0 mps 616 mmHg 96%
    03:00 +15°C° 0.2 mm 0 mps 616 mmHg 96%
    04:00 +15°C° 0.2 mm 0 mps 616 mmHg 96%
    05:00 +15°C° 0.2 mm 0 mps 617 mmHg 95%
    06:00 +16°C° 0.2 mm 0 mps 617 mmHg 94%
    07:00 +16°C° 0.2 mm 0 mps 618 mmHg 93%
    08:00 +17°C° 0.3 mm 0 mps 619 mmHg 90%
    09:00 +20°C° 0.3 mm 1 mps 619 mmHg 86%
    10:00 +21°C° 0.3 mm 1 mps 620 mmHg 83%
    11:00 +21°C° 1 mm 1 mps 619 mmHg 85%
    12:00 +18°C° 1 mm 0 mps 619 mmHg 88%
    13:00 +18°C° 1 mm 0 mps 618 mmHg 90%
    14:00 +18°C° 0.8 mm 0 mps 618 mmHg 89%
    15:00 +20°C° 0.8 mm 1 mps 618 mmHg 87%
    16:00 +21°C° 0.8 mm 1 mps 617 mmHg 85%
    17:00 +20°C° 0.3 mm 1 mps 617 mmHg 88%
    18:00 +18°C° 0.3 mm 1 mps 617 mmHg 91%
    19:00 +16°C° 0.3 mm 1 mps 617 mmHg 93%
    20:00 +16°C° 0 mm 1 mps 617 mmHg 92%
    21:00 +16°C° 0 mm 1 mps 617 mmHg 91%
    22:00 +15°C° 0 mm 1 mps 617 mmHg 90%
    23:00 +15°C° 0 mm 1 mps 617 mmHg 90%

    21 September, Saturday

    Time Temperature Precipitation Wind Pressure Humidity
    00:00 +15°C° 0 mm 1 mps 617 mmHg 89%
    01:00 +15°C° 0 mm 1 mps 617 mmHg 88%
    02:00 +16°C° 0 mm 1 mps 617 mmHg 87%
    03:00 +16°C° 0 mm 1 mps 617 mmHg 86%
    04:00 +15°C° 0 mm 0 mps 617 mmHg 85%
    05:00 +16°C° 0 mm 1 mps 617 mmHg 85%
    06:00 +16°C° 0 mm 1 mps 618 mmHg 84%
    07:00 +18°C° 0 mm 1 mps 618 mmHg 84%
    08:00 +20°C° 0 mm 1 mps 619 mmHg 76%
    09:00 +22°C° 0 mm 1 mps 620 mmHg 68%
    10:00 +24°C° 0 mm 1 mps 621 mmHg 61%
    11:00 +25°C° 0.3 mm 1 mps 621 mmHg 59%
    12:00 +26°C° 0.3 mm 1 mps 620 mmHg 57%
    13:00 +26°C° 0.3 mm 1 mps 620 mmHg 55%
    14:00 +26°C° 0.7 mm 1 mps 619 mmHg 59%
    15:00 +25°C° 0.7 mm 1 mps 619 mmHg 62%
    16:00 +24°C° 0.7 mm 1 mps 618 mmHg 66%
    17:00 +22°C° 0.7 mm 1 mps 617 mmHg 74%
    18:00 +20°C° 0.7 mm 1 mps 617 mmHg 83%
    19:00 +18°C° 0.7 mm 1 mps 616 mmHg 91%
    20:00 +16°C° 0.1 mm 1 mps 617 mmHg 90%
    21:00 +16°C° 0.1 mm 1 mps 617 mmHg 89%
    22:00 +16°C° 0.1 mm 1 mps 618 mmHg 88%
    23:00 +16°C° 0.1 mm 1 mps 617 mmHg 89%

    22 September, Sunday

    Time Temperature Precipitation Wind Pressure Humidity
    00:00 +15°C° 0.1 mm 0 mps 617 mmHg 89%
    01:00 +15°C° 0.1 mm 0 mps 617 mmHg 90%
    02:00 +15°C° 0 mm 0 mps 617 mmHg 90%
    03:00 +15°C° 0 mm 0 mps 617 mmHg 90%
    04:00 +14°C° 0 mm 0 mps 616 mmHg 89%
    05:00 +15°C° 0 mm 0 mps 617 mmHg 88%
    06:00 +16°C° 0 mm 1 mps 618 mmHg 87%
    07:00 +18°C° 0 mm 1 mps 618 mmHg 85%
    08:00 +20°C° 0 mm 1 mps 619 mmHg 77%
    09:00 +22°C° 0 mm 1 mps 620 mmHg 69%
    10:00 +24°C° 0 mm 1 mps 621 mmHg 61%
    11:00 +25°C° 0.3 mm 1 mps 620 mmHg 59%
    12:00 +26°C° 0.3 mm 1 mps 620 mmHg 56%
    13:00 +26°C° 0.3 mm 1 mps 620 mmHg 53%
    14:00 +25°C° 0.9 mm 1 mps 619 mmHg 60%
    15:00 +24°C° 0.9 mm 1 mps 618 mmHg 66%
    16:00 +23°C° 0.9 mm 1 mps 617 mmHg 73%
    17:00 +21°C° 1.1 mm 1 mps 617 mmHg 79%
    18:00 +19°C° 1.1 mm 1 mps 617 mmHg 84%
    19:00 +18°C° 1.1 mm 1 mps 617 mmHg 90%
    20:00 +16°C° 0.2 mm 1 mps 617 mmHg 89%
    21:00 +16°C° 0.2 mm 1 mps 617 mmHg 88%
    22:00 +16°C° 0.2 mm 1 mps 618 mmHg 87%
    23:00 +15°C° 0 mm 1 mps 617 mmHg 87%
    Show more